| time (UTC) | temp C | wind direction | speed KPH | gust KPH | rain 1hr cm | rain 24hr cm | rain mn cm | humidity % | barometer mb |
| 20260507201729 | 12 | 295 | 3.2 | 3.2 | 0.00 | 2.51 | 0.00 | 93 | 999.0 |
| 20260507201329 | 12 | 352 | 1.6 | 3.2 | 0.00 | 2.51 | 0.00 | 95 | 999.4 |
| 20260507201129 | 12 | 358 | 0.0 | 0.0 | 0.00 | 2.51 | 0.00 | 95 | 999.0 |
| 20260507200929 | 12 | 358 | 0.0 | 3.2 | 0.00 | 2.51 | 0.00 | 94 | 999.3 |
| 20260507200729 | 12 | 319 | 0.0 | 0.0 | 0.00 | 2.51 | 0.00 | 94 | 999.2 |
| 20260507200529 | 12 | 319 | 3.2 | 4.8 | 0.00 | 2.51 | 0.00 | 94 | 999.3 |
| 20260507200329 | 11 | 353 | 0.0 | 3.2 | 0.00 | 2.51 | 0.00 | 94 | 999.4 |
| 20260507200129 | 11 | 345 | 0.0 | 1.6 | 0.00 | 2.51 | 0.00 | 94 | 999.3 |
| 20260507195929 | 12 | 345 | 1.6 | 3.2 | 0.00 | 2.51 | 0.00 | 94 | 999.3 |
| 20260507195529 | 11 | 319 | 1.6 | 3.2 | 0.00 | 2.51 | 0.00 | 94 | 999.1 |
| 20260507195329 | 11 | 321 | 1.6 | 3.2 | 0.00 | 2.51 | 0.00 | 94 | 999.4 |
| 20260507195129 | 11 | 355 | 1.6 | 3.2 | 0.00 | 2.51 | 0.00 | 94 | 999.4 |
| 20260507194729 | 11 | 18 | 1.6 | 6.4 | 0.00 | 2.51 | 0.00 | 96 | 999.3 |
| 20260507194529 | 11 | 5 | 1.6 | 6.4 | 0.00 | 2.51 | 0.00 | 96 | 999.4 |
| 20260507194129 | 11 | 307 | 1.6 | 1.6 | 0.00 | 2.51 | 0.00 | 96 | 999.8 |
| 20260507193929 | 11 | 311 | 6.4 | 6.4 | 0.00 | 2.51 | 0.00 | 96 | 999.6 |
| 20260507193729 | 11 | 326 | 3.2 | 9.7 | 0.00 | 2.51 | 0.00 | 96 | 999.6 |
| 20260507193529 | 11 | 311 | 4.8 | 4.8 | 0.13 | 2.51 | 0.00 | 97 | 999.5 |
| 20260507193129 | 11 | 319 | 0.0 | 1.6 | 0.13 | 2.51 | 0.00 | 97 | 999.5 |
| 20260507192929 | 11 | 319 | 1.6 | 1.6 | 0.13 | 2.51 | 0.00 | 97 | 999.6 |
| 20260507192529 | 11 | 351 | 1.6 | 3.2 | 0.00 | 2.49 | 0.00 | 97 | 999.8 |
| 20260507192329 | 11 | 303 | 0.0 | 1.6 | 0.00 | 2.49 | 0.00 | 97 | 999.6 |
| 20260507192129 | 11 | 304 | 1.6 | 4.8 | 0.00 | 2.49 | 0.00 | 97 | 999.4 |
| 20260507191929 | 11 | 321 | 0.0 | 1.6 | 0.00 | 2.49 | 0.00 | 97 | 999.6 |
| 20260507191729 | 11 | 319 | 1.6 | 6.4 | 0.00 | 2.49 | 0.00 | 96 | 999.6 |
| 20260507191529 | 10 | 283 | 3.2 | 3.2 | 0.00 | 2.49 | 0.00 | 96 | 999.5 |
| 20260507191329 | 10 | 298 | 3.2 | 3.2 | 0.00 | 2.49 | 0.00 | 96 | 999.8 |
| 20260507190929 | 10 | 44 | 3.2 | 4.8 | 0.18 | 2.49 | 0.00 | 96 | 999.5 |
| 20260507190529 | 10 | 323 | 0.0 | 3.2 | 0.18 | 2.49 | 0.00 | 97 | 999.7 |
| 20260507190329 | 10 | 44 | 1.6 | 1.6 | 0.00 | 2.46 | 0.00 | 96 | 999.7 |
| 20260507190129 | 10 | 45 | 3.2 | 6.4 | 0.00 | 2.46 | 0.00 | 96 | 999.7 |
| 20260507185929 | 10 | 356 | 3.2 | 3.2 | 0.00 | 2.46 | 0.00 | 96 | 999.6 |
| 20260507185729 | 10 | 38 | 4.8 | 6.4 | 0.00 | 2.46 | 0.00 | 96 | 999.8 |
| 20260507185529 | 10 | 56 | 1.6 | 4.8 | 0.00 | 2.46 | 0.00 | 96 | 999.9 |
| 20260507185329 | 11 | 63 | 4.8 | 9.7 | 0.00 | 2.46 | 0.00 | 96 | 999.7 |
| 20260507185129 | 11 | 13 | 3.2 | 4.8 | 0.00 | 2.46 | 0.00 | 96 | 999.9 |
| 20260507184929 | 11 | 53 | 3.2 | 3.2 | 0.00 | 2.46 | 0.00 | 96 | 999.9 |
| 20260507184729 | 11 | 24 | 1.6 | 4.8 | 0.00 | 2.46 | 0.00 | 96 | 999.7 |
| 20260507184529 | 11 | 7 | 3.2 | 4.8 | 0.00 | 2.46 | 0.00 | 96 | 999.6 |
| 20260507184329 | 11 | 7 | 1.6 | 3.2 | 0.00 | 2.46 | 0.00 | 96 | 999.6 |
| 20260507183929 | 11 | 314 | 3.2 | 4.8 | 0.00 | 2.46 | 0.00 | 96 | 999.5 |
| 20260507183529 | 11 | 328 | 1.6 | 4.8 | 0.00 | 2.46 | 0.00 | 96 | 999.6 |
| 20260507183329 | 11 | 330 | 4.8 | 9.7 | 0.00 | 2.46 | 0.00 | 96 | 999.4 |
| 20260507183129 | 11 | 321 | 3.2 | 6.4 | 0.00 | 2.46 | 0.00 | 96 | 999.5 |
| 20260507182929 | 11 | 2 | 4.8 | 6.4 | 0.00 | 2.46 | 0.00 | 96 | 999.2 |
| 20260507182729 | 11 | 317 | 1.6 | 3.2 | 0.00 | 2.46 | 0.00 | 96 | 999.2 |
| 20260507182329 | 11 | 333 | 4.8 | 11.3 | 0.00 | 2.46 | 0.00 | 96 | 999.6 |
| 20260507182129 | 11 | 352 | 1.6 | 3.2 | 0.00 | 2.46 | 0.00 | 95 | 999.4 |
| 20260507181929 | 11 | 7 | 1.6 | 6.4 | 0.00 | 2.46 | 0.00 | 95 | 999.6 |
| 20260507181729 | 11 | 16 | 1.6 | 4.8 | 0.00 | 2.46 | 0.00 | 96 | 999.4 |
| 20260507181529 | 11 | 359 | 1.6 | 4.8 | 0.00 | 2.46 | 0.00 | 96 | 999.1 |
| 20260507181329 | 11 | 307 | 4.8 | 6.4 | 0.00 | 2.46 | 0.00 | 96 | 999.1 |
| 20260507181129 | 11 | 28 | 1.6 | 6.4 | 0.00 | 2.46 | 0.00 | 96 | 999.3 |
| 20260507180729 | 11 | 37 | 3.2 | 9.7 | 0.00 | 2.46 | 0.00 | 96 | 998.8 |
| 20260507180529 | 11 | 3 | 1.6 | 3.2 | 0.00 | 2.46 | 0.00 | 96 | 998.4 |
| 20260507180329 | 11 | 244 | 0.0 | 1.6 | 0.00 | 2.46 | 0.00 | 96 | 998.0 |
| 20260507180129 | 11 | 210 | 1.6 | 1.6 | 0.00 | 2.46 | 0.00 | 96 | 997.9 |
| 20260507175929 | 11 | 175 | 0.0 | 1.6 | 0.00 | 2.46 | 0.00 | 96 | 998.2 |
| 20260507175729 | 11 | 176 | 1.6 | 1.6 | 0.00 | 2.46 | 0.00 | 96 | 998.3 |
| 20260507175529 | 11 | 169 | 0.0 | 4.8 | 0.13 | 2.46 | 0.00 | 96 | 997.8 |
| 20260507175329 | 11 | 259 | 1.6 | 16.1 | 0.13 | 2.46 | 0.00 | 97 | 997.5 |
| 20260507175129 | 11 | 266 | 1.6 | 4.8 | 0.13 | 2.46 | 0.00 | 97 | 998.0 |
| 20260507174929 | 11 | 257 | 1.6 | 6.4 | 0.13 | 2.46 | 0.00 | 97 | 998.3 |
| 20260507174729 | 11 | 233 | 3.2 | 3.2 | 0.13 | 2.46 | 0.00 | 97 | 998.4 |
| 20260507174529 | 11 | 235 | 4.8 | 4.8 | 0.18 | 2.44 | 0.00 | 97 | 998.6 |
| 20260507174329 | 11 | 268 | 1.6 | 4.8 | 0.18 | 2.44 | 0.00 | 97 | 998.5 |
| 20260507174129 | 11 | 293 | 3.2 | 6.4 | 0.18 | 2.44 | 0.00 | 97 | 998.8 |
| 20260507173929 | 11 | 286 | 1.6 | 1.6 | 0.18 | 2.44 | 0.00 | 97 | 999.0 |
| 20260507173730 | 11 | 295 | 1.6 | 3.2 | 0.18 | 2.44 | 0.00 | 97 | 999.1 |
| 20260507173529 | 11 | 294 | 1.6 | 3.2 | 0.00 | 2.41 | 0.00 | 97 | 999.2 |
| 20260507173329 | 11 | 295 | 1.6 | 1.6 | 0.00 | 2.41 | 0.00 | 97 | 999.4 |
| 20260507173129 | 11 | 294 | 3.2 | 1.6 | 0.13 | 2.41 | 0.00 | 97 | 999.3 |
| 20260507172929 | 11 | 297 | 0.0 | 1.6 | 0.13 | 2.41 | 0.00 | 97 | 999.5 |
| 20260507172329 | 11 | 316 | 1.6 | 1.6 | 0.13 | 2.41 | 0.00 | 97 | 1000.0 |
| 20260507171929 | 11 | 317 | 1.6 | 3.2 | 0.18 | 2.39 | 0.00 | 97 | 1000.0 |
| 20260507171728 | 11 | 298 | 1.6 | 1.6 | 0.18 | 2.39 | 0.00 | 97 | 1000.1 |
| 20260507171529 | 11 | 298 | 1.6 | 1.6 | 0.18 | 2.39 | 0.00 | 97 | 999.9 |
| 20260507171329 | 11 | 298 | 0.0 | 1.6 | 0.18 | 2.39 | 0.00 | 97 | 1000.0 |
| 20260507171129 | 10 | 298 | 0.0 | 0.0 | 0.13 | 2.36 | 0.00 | 97 | 1000.0 |
| 20260507170929 | 10 | 298 | 0.0 | 1.6 | 0.30 | 2.36 | 0.00 | 97 | 1000.0 |
| 20260507170729 | 10 | 298 | 0.0 | 0.0 | 0.30 | 2.36 | 0.00 | 97 | 999.9 |
| 20260507170529 | 10 | 299 | 1.6 | 1.6 | 0.30 | 2.36 | 0.00 | 97 | 1000.3 |
| 20260507170329 | 10 | 299 | 0.0 | 1.6 | 0.18 | 2.34 | 0.00 | 97 | 1000.2 |
| 20260507170129 | 10 | 299 | 0.0 | 3.2 | 0.18 | 2.34 | 0.00 | 97 | 1000.4 |
| 20260507165929 | 10 | 289 | 1.6 | 4.8 | 0.00 | 2.31 | 0.00 | 97 | 1000.5 |
| 20260507165729 | 10 | 311 | 3.2 | 4.8 | 0.00 | 2.31 | 0.00 | 97 | 1000.9 |
| 20260507165529 | 10 | 294 | 0.0 | 4.8 | 0.00 | 2.31 | 0.00 | 97 | 1000.6 |
| 20260507165129 | 10 | 318 | 0.0 | 1.6 | 0.00 | 2.31 | 0.00 | 97 | 1000.3 |
| 20260507164929 | 10 | 318 | 0.0 | 3.2 | 0.00 | 2.31 | 0.00 | 97 | 1000.2 |
| 20260507164329 | 10 | 318 | 1.6 | 1.6 | 0.18 | 2.31 | 0.00 | 97 | 1000.0 |
| 20260507164129 | 10 | 315 | 0.0 | 1.6 | 0.18 | 2.31 | 0.00 | 97 | 1000.1 |
| 20260507163929 | 10 | 315 | 0.0 | 0.0 | 0.18 | 2.31 | 0.00 | 97 | 999.9 |
| 20260507163729 | 10 | 315 | 0.0 | 0.0 | 0.00 | 2.29 | 0.00 | 97 | 999.7 |
| 20260507163329 | 10 | 307 | 0.0 | 0.0 | 0.13 | 2.29 | 0.00 | 97 | 1000.1 |
| 20260507163129 | 10 | 305 | 0.0 | 3.2 | 0.30 | 2.29 | 0.00 | 97 | 1000.2 |
| 20260507162929 | 10 | 314 | 3.2 | 4.8 | 0.43 | 2.29 | 0.00 | 97 | 1000.2 |
| 20260507162528 | 10 | 301 | 1.6 | 4.8 | 0.61 | 2.26 | 0.00 | 97 | 1000.4 |
| 20260507162329 | 10 | 324 | 1.6 | 3.2 | 0.61 | 2.24 | 0.00 | 97 | 1000.7 |
| 20260507162129 | 10 | 317 | 1.6 | 4.8 | 0.48 | 2.21 | 0.00 | 97 | 1000.8 |
| 20260507161729 | 10 | 331 | 1.6 | 3.2 | 0.43 | 2.18 | 0.00 | 97 | 1001.0 |
| 20260507161328 | 10 | 317 | 3.2 | 3.2 | 0.30 | 2.13 | 0.00 | 97 | 1001.1 |
| 20260507161128 | 10 | 321 | 6.4 | 6.4 | 0.43 | 2.13 | 0.00 | 97 | 1001.1 |
| 20260507160928 | 10 | 351 | 0.0 | 3.2 | 0.48 | 2.11 | 0.00 | 97 | 1001.0 |
| 20260507160728 | 10 | 9 | 3.2 | 3.2 | 0.48 | 2.11 | 0.00 | 97 | 1001.2 |
| 20260507160528 | 10 | 5 | 3.2 | 4.8 | 0.43 | 2.08 | 0.00 | 97 | 1001.1 |
| 20260507160329 | 10 | 325 | 3.2 | 4.8 | 0.61 | 2.08 | 0.00 | 97 | 1001.1 |
| 20260507160129 | 10 | 334 | 1.6 | 4.8 | 0.66 | 2.06 | 0.00 | 97 | 1000.9 |
| 20260507155329 | 10 | 348 | 3.2 | 4.8 | 0.61 | 1.98 | 0.00 | 97 | 1001.1 |
| 20260507154929 | 10 | 338 | 4.8 | 6.4 | 0.48 | 1.93 | 0.00 | 97 | 1001.1 |
| 20260507154728 | 10 | 332 | 1.6 | 3.2 | 0.43 | 1.91 | 0.00 | 97 | 1001.1 |
| 20260507154528 | 10 | 330 | 0.0 | 1.6 | 0.43 | 1.91 | 0.00 | 96 | 1001.0 |
| 20260507154328 | 10 | 330 | 1.6 | 1.6 | 0.48 | 1.88 | 0.00 | 96 | 1001.0 |
| 20260507153529 | 10 | 319 | 1.6 | 6.4 | 0.79 | 1.83 | 0.00 | 96 | 1001.4 |
| 20260507153329 | 10 | 5 | 1.6 | 3.2 | 0.79 | 1.80 | 0.00 | 96 | 1001.3 |
| 20260507153129 | 10 | 9 | 1.6 | 3.2 | 1.09 | 1.80 | 0.00 | 96 | 1001.2 |
| 20260507152929 | 10 | 335 | 9.7 | 12.9 | 1.09 | 1.75 | 0.00 | 96 | 1001.5 |
| 20260507152529 | 10 | 325 | 6.4 | 6.4 | 1.37 | 1.70 | 0.00 | 96 | 1001.6 |
| 20260507152329 | 11 | 331 | 1.6 | 3.2 | 1.63 | 1.68 | 0.00 | 96 | 1001.6 |
| 20260507152129 | 11 | 345 | 1.6 | 11.3 | 1.68 | 1.60 | 0.00 | 96 | 1001.7 |
| 20260507151929 | 11 | 344 | 3.2 | 4.8 | 1.98 | 1.55 | 0.00 | 96 | 1002.2 |
| 20260507151329 | 11 | 335 | 1.6 | 3.2 | 1.50 | 1.37 | 0.00 | 96 | 1002.0 |
| 20260507151129 | 11 | 330 | 3.2 | 3.2 | 1.09 | 1.27 | 0.00 | 96 | 1001.9 |
| 20260507150929 | 11 | 18 | 3.2 | 4.8 | 0.61 | 1.17 | 0.00 | 96 | 1002.1 |
| 20260507150729 | 11 | 322 | 3.2 | 6.4 | 0.61 | 1.14 | 0.00 | 96 | 1002.1 |
| 20260507150529 | 11 | 1 | 1.6 | 4.8 | 0.48 | 1.12 | 0.00 | 96 | 1001.9 |
| 20260507150128 | 11 | 22 | 1.6 | 3.2 | 0.79 | 1.09 | 0.00 | 96 | 1002.0 |
| 20260507145928 | 11 | 325 | 3.2 | 9.7 | 0.97 | 1.07 | 0.00 | 96 | 1001.8 |
| 20260507145728 | 11 | 338 | 4.8 | 6.4 | 0.89 | 1.04 | 0.00 | 96 | 1001.7 |
| 20260507145528 | 11 | 347 | 4.8 | 6.4 | 1.09 | 1.04 | 0.00 | 96 | 1001.6 |
| 20260507145328 | 11 | 332 | 4.8 | 4.8 | 0.79 | 0.99 | 0.00 | 96 | 1002.2 |
| 20260507145128 | 11 | 9 | 3.2 | 3.2 | 0.71 | 0.97 | 0.00 | 96 | 1002.1 |
| 20260507144928 | 11 | 7 | 3.2 | 20.9 | 0.43 | 0.91 | 0.00 | 96 | 1002.3 |
| 20260507144728 | 11 | 352 | 11.3 | 14.5 | 0.13 | 0.86 | 0.00 | 96 | 1002.4 |
| 20260507144528 | 11 | 13 | 4.8 | 11.3 | 0.30 | 0.86 | 0.00 | 96 | 1002.2 |
| 20260507144328 | 11 | 358 | 4.8 | 9.7 | 0.18 | 0.84 | 0.00 | 96 | 1002.1 |
| 20260507144128 | 11 | 350 | 3.2 | 11.3 | 0.18 | 0.84 | 0.00 | 96 | 1002.1 |
| 20260507143929 | 11 | 318 | 6.4 | 9.7 | 0.30 | 0.84 | 0.00 | 96 | 1002.1 |
| 20260507143729 | 11 | 307 | 3.2 | 4.8 | 0.30 | 0.84 | 0.00 | 96 | 1002.0 |
| 20260507143529 | 11 | 344 | 3.2 | 6.4 | 0.30 | 0.81 | 0.00 | 96 | 1002.1 |
| 20260507143329 | 11 | 305 | 6.4 | 6.4 | 0.43 | 0.81 | 0.00 | 96 | 1002.0 |
| 20260507142529 | 11 | 4 | 4.8 | 9.7 | 0.00 | 0.74 | 0.00 | 96 | 1002.1 |
| 20260507142329 | 11 | 342 | 6.4 | 9.7 | 0.00 | 0.74 | 0.00 | 97 | 1002.0 |
| 20260507142129 | 11 | 9 | 0.0 | 3.2 | 0.18 | 0.74 | 0.00 | 97 | 1001.9 |
| 20260507141929 | 11 | 333 | 1.6 | 3.2 | 0.18 | 0.74 | 0.00 | 97 | 1002.2 |
| 20260507141729 | 11 | 319 | 4.8 | 6.4 | 0.18 | 0.74 | 0.00 | 97 | 1002.0 |
| 20260507141329 | 11 | 338 | 3.2 | 11.3 | 0.36 | 0.74 | 0.00 | 96 | 1002.2 |
| 20260507141129 | 11 | 317 | 6.4 | 11.3 | 0.18 | 0.71 | 0.00 | 96 | 1002.1 |
| 20260507140929 | 11 | 31 | 4.8 | 11.3 | 0.18 | 0.71 | 0.00 | 96 | 1001.8 |
| 20260507140729 | 11 | 20 | 3.2 | 12.9 | 0.18 | 0.71 | 0.00 | 96 | 1001.8 |
| 20260507140529 | 11 | 351 | 4.8 | 11.3 | 0.18 | 0.71 | 0.00 | 96 | 1001.9 |
| 20260507140329 | 12 | 10 | 3.2 | 12.9 | 0.00 | 0.69 | 0.00 | 96 | 1002.2 |
| 20260507140129 | 12 | 325 | 0.0 | 12.9 | 0.00 | 0.69 | 0.00 | 96 | 1002.1 |
| 20260507135929 | 12 | 329 | 6.4 | 14.5 | 0.00 | 0.69 | 0.00 | 96 | 1002.1 |
| 20260507135329 | 12 | 358 | 3.2 | 4.8 | 0.00 | 0.69 | 0.00 | 96 | 1002.2 |
| 20260507135129 | 12 | 327 | 4.8 | 12.9 | 0.00 | 0.69 | 0.00 | 96 | 1002.1 |
| 20260507134929 | 12 | 318 | 16.1 | 24.1 | 0.00 | 0.69 | 0.00 | 96 | 1002.3 |
| 20260507134729 | 12 | 276 | 8.0 | 12.9 | 0.00 | 0.69 | 0.00 | 96 | 1002.3 |
| 20260507134529 | 12 | 338 | 11.3 | 17.7 | 0.00 | 0.69 | 0.00 | 96 | 1002.3 |
| 20260507134129 | 12 | 345 | 4.8 | 12.9 | 0.00 | 0.69 | 0.00 | 96 | 1002.1 |
| 20260507133929 | 12 | 313 | 9.7 | 14.5 | 0.00 | 0.69 | 0.00 | 96 | 1002.0 |
| 20260507133729 | 12 | 342 | 14.5 | 16.1 | 0.00 | 0.69 | 0.00 | 96 | 1002.1 |
| 20260507133529 | 12 | 330 | 1.6 | 9.7 | 0.00 | 0.69 | 0.00 | 96 | 1002.2 |
| 20260507133329 | 12 | 4 | 8.0 | 11.3 | 0.00 | 0.69 | 0.00 | 96 | 1002.2 |
| 20260507133129 | 12 | 320 | 11.3 | 12.9 | 0.00 | 0.69 | 0.00 | 96 | 1002.3 |
| 20260507132929 | 12 | 329 | 9.7 | 17.7 | 0.00 | 0.69 | 0.00 | 96 | 1002.5 |
| 20260507132529 | 12 | 306 | 3.2 | 11.3 | 0.00 | 0.69 | 0.00 | 96 | 1002.6 |
| 20260507132329 | 12 | 329 | 9.7 | 11.3 | 0.00 | 0.69 | 0.00 | 96 | 1002.4 |
| 20260507131929 | 12 | 344 | 8.0 | 14.5 | 0.00 | 0.69 | 0.00 | 96 | 1002.7 |
| 20260507131729 | 12 | 324 | 11.3 | 14.5 | 0.00 | 0.69 | 0.00 | 96 | 1002.7 |
| 20260507131529 | 12 | 40 | 4.8 | 14.5 | 0.00 | 0.69 | 0.00 | 96 | 1002.5 |
| 20260507131329 | 12 | 0 | 3.2 | 9.7 | 0.00 | 0.69 | 0.00 | 96 | 1002.5 |
| 20260507131129 | 12 | 293 | 9.7 | 12.9 | 0.00 | 0.69 | 0.00 | 96 | 1002.5 |
| 20260507130729 | 12 | 0 | 3.2 | 11.3 | 0.00 | 0.69 | 0.00 | 96 | 1002.7 |
| 20260507130529 | 12 | 23 | 6.4 | 11.3 | 0.00 | 0.69 | 0.00 | 96 | 1002.5 |
| 20260507130328 | 12 | 331 | 3.2 | 14.5 | 0.00 | 0.69 | 0.00 | 96 | 1002.4 |
| 20260507130128 | 12 | 317 | 3.2 | 12.9 | 0.00 | 0.69 | 0.00 | 96 | 1002.7 |
| 20260507125928 | 12 | 341 | 3.2 | 14.5 | 0.00 | 0.69 | 0.00 | 96 | 1002.9 |
| 20260507125728 | 12 | 340 | 8.0 | 20.9 | 0.00 | 0.69 | 0.00 | 96 | 1003.0 |
| 20260507125528 | 12 | 338 | 8.0 | 16.1 | 0.00 | 0.69 | 0.00 | 96 | 1003.0 |
| 20260507125129 | 12 | 17 | 12.9 | 20.9 | 0.00 | 0.69 | 0.00 | 96 | 1003.1 |
| 20260507124928 | 12 | 311 | 8.0 | 22.5 | 0.00 | 0.69 | 0.00 | 96 | 1003.4 |
| 20260507124728 | 12 | 321 | 6.4 | 22.5 | 0.00 | 0.69 | 0.00 | 95 | 1003.4 |
| 20260507124328 | 12 | 242 | 6.4 | 11.3 | 0.00 | 0.69 | 0.00 | 95 | 1003.3 |
| 20260507123728 | 12 | 290 | 1.6 | 9.7 | 0.00 | 0.69 | 0.00 | 95 | 1003.5 |
| 20260507123528 | 12 | 319 | 8.0 | 12.9 | 0.00 | 0.69 | 0.00 | 95 | 1003.2 |
| 20260507123129 | 12 | 352 | 4.8 | 14.5 | 0.00 | 0.69 | 0.00 | 95 | 1003.4 |
| 20260507122928 | 12 | 287 | 9.7 | 20.9 | 0.00 | 0.69 | 0.00 | 95 | 1003.4 |
| 20260507122729 | 12 | 311 | 1.6 | 12.9 | 0.00 | 0.69 | 0.00 | 95 | 1003.2 |
| 20260507122528 | 12 | 16 | 3.2 | 14.5 | 0.00 | 0.69 | 0.00 | 95 | 1003.5 |
| 20260507122328 | 12 | 312 | 8.0 | 22.5 | 0.00 | 0.69 | 0.00 | 95 | 1003.2 |
| 20260507121928 | 12 | 303 | 6.4 | 14.5 | 0.00 | 0.69 | 0.00 | 95 | 1003.4 |
| 20260507121528 | 12 | 1 | 4.8 | 11.3 | 0.00 | 0.69 | 0.00 | 95 | 1003.3 |
| 20260507121328 | 12 | 0 | 6.4 | 9.7 | 0.00 | 0.69 | 0.00 | 95 | 1003.4 |
| 20260507121129 | 12 | 16 | 3.2 | 14.5 | 0.00 | 0.69 | 0.00 | 95 | 1003.4 |
| 20260507120928 | 12 | 310 | 6.4 | 14.5 | 0.00 | 0.69 | 0.00 | 95 | 1003.4 |
| 20260507120728 | 12 | 317 | 16.1 | 17.7 | 0.00 | 0.69 | 0.00 | 95 | 1003.4 |
| 20260507120529 | 12 | 333 | 9.7 | 12.9 | 0.00 | 0.69 | 0.00 | 95 | 1003.3 |
| 20260507120329 | 12 | 341 | 4.8 | 14.5 | 0.13 | 0.69 | 0.00 | 95 | 1003.4 |
| 20260507115528 | 12 | 335 | 12.9 | 22.5 | 0.13 | 0.69 | 0.00 | 95 | 1003.6 |
| 20260507115328 | 12 | 26 | 14.5 | 22.5 | 0.00 | 0.66 | 0.00 | 95 | 1003.6 |
| 20260507115129 | 12 | 18 | 4.8 | 24.1 | 0.00 | 0.66 | 0.00 | 95 | 1003.8 |
| 20260507114929 | 12 | 293 | 6.4 | 24.1 | 0.00 | 0.66 | 0.00 | 95 | 1003.8 |
| 20260507114729 | 12 | 341 | 8.0 | 14.5 | 0.00 | 0.66 | 0.00 | 96 | 1003.7 |
| 20260507114328 | 12 | 344 | 6.4 | 12.9 | 0.00 | 0.66 | 0.00 | 96 | 1003.8 |
| 20260507114129 | 12 | 308 | 6.4 | 12.9 | 0.00 | 0.66 | 0.00 | 96 | 1003.5 |
| 20260507113929 | 12 | 7 | 6.4 | 14.5 | 0.00 | 0.66 | 0.00 | 96 | 1003.6 |
| 20260507113728 | 12 | 296 | 3.2 | 11.3 | 0.00 | 0.66 | 0.00 | 96 | 1003.7 |
| 20260507113528 | 12 | 292 | 6.4 | 16.1 | 0.00 | 0.66 | 0.00 | 96 | 1003.8 |
| 20260507113328 | 12 | 292 | 3.2 | 6.4 | 0.00 | 0.66 | 0.00 | 96 | 1003.6 |
| 20260507112928 | 12 | 295 | 6.4 | 11.3 | 0.00 | 0.66 | 0.00 | 96 | 1003.6 |
| 20260507112328 | 12 | 341 | 8.0 | 11.3 | 0.00 | 0.66 | 0.00 | 95 | 1003.9 |
| 20260507112129 | 12 | 288 | 1.6 | 6.4 | 0.00 | 0.66 | 0.00 | 95 | 1003.8 |
| 20260507111928 | 12 | 294 | 6.4 | 9.7 | 0.00 | 0.66 | 0.00 | 95 | 1003.7 |
| 20260507111728 | 12 | 343 | 3.2 | 6.4 | 0.00 | 0.66 | 0.00 | 95 | 1003.6 |
| 20260507111528 | 12 | 51 | 6.4 | 9.7 | 0.00 | 0.66 | 0.00 | 95 | 1003.6 |
| 20260507111328 | 12 | 333 | 8.0 | 11.3 | 0.00 | 0.66 | 0.00 | 95 | 1003.6 |
| 20260507111128 | 12 | 306 | 9.7 | 12.9 | 0.18 | 0.66 | 0.00 | 95 | 1003.4 |
| 20260507110929 | 12 | 29 | 8.0 | 14.5 | 0.18 | 0.66 | 0.00 | 95 | 1003.5 |
| 20260507110728 | 12 | 278 | 6.4 | 11.3 | 0.18 | 0.66 | 0.00 | 95 | 1003.7 |
| 20260507110528 | 12 | 312 | 11.3 | 17.7 | 0.18 | 0.66 | 0.00 | 95 | 1003.7 |
| 20260507110129 | 12 | 351 | 3.2 | 9.7 | 0.00 | 0.64 | 0.00 | 95 | 1004.0 |
| 20260507105929 | 12 | 329 | 8.0 | 12.9 | 0.00 | 0.64 | 0.00 | 95 | 1004.1 |
| 20260507105729 | 12 | 319 | 4.8 | 17.7 | 0.13 | 0.64 | 0.00 | 95 | 1004.2 |
| 20260507105529 | 12 | 318 | 3.2 | 14.5 | 0.13 | 0.64 | 0.00 | 95 | 1004.2 |
| 20260507105329 | 12 | 18 | 8.0 | 12.9 | 0.13 | 0.64 | 0.00 | 95 | 1004.1 |
| 20260507105129 | 12 | 313 | 6.4 | 9.7 | 0.13 | 0.64 | 0.00 | 95 | 1003.9 |
| 20260507104929 | 12 | 321 | 9.7 | 12.9 | 0.13 | 0.64 | 0.00 | 95 | 1004.0 |
| 20260507104729 | 12 | 276 | 6.4 | 14.5 | 0.00 | 0.61 | 0.00 | 95 | 1003.9 |
| 20260507104528 | 12 | 232 | 6.4 | 14.5 | 0.00 | 0.61 | 0.00 | 94 | 1003.9 |
| 20260507104329 | 12 | 304 | 6.4 | 9.7 | 0.00 | 0.61 | 0.00 | 94 | 1003.9 |
| 20260507104128 | 12 | 315 | 6.4 | 12.9 | 0.00 | 0.61 | 0.00 | 94 | 1004.0 |
| 20260507103929 | 12 | 317 | 8.0 | 20.9 | 0.00 | 0.61 | 0.00 | 94 | 1004.0 |
| 20260507103729 | 12 | 358 | 9.7 | 16.1 | 0.00 | 0.61 | 0.00 | 94 | 1004.0 |
| 20260507103529 | 12 | 334 | 4.8 | 11.3 | 0.00 | 0.61 | 0.00 | 94 | 1004.0 |
| 20260507103329 | 12 | 23 | 4.8 | 20.9 | 0.00 | 0.61 | 0.00 | 94 | 1003.9 |
| 20260507102929 | 12 | 25 | 14.5 | 20.9 | 0.18 | 0.61 | 0.00 | 94 | 1004.0 |
| 20260507102729 | 12 | 283 | 6.4 | 24.1 | 0.18 | 0.61 | 0.00 | 94 | 1004.0 |
| 20260507102329 | 12 | 4 | 9.7 | 12.9 | 0.18 | 0.61 | 0.00 | 95 | 1003.7 |
| 20260507102129 | 12 | 343 | 6.4 | 17.7 | 0.18 | 0.61 | 0.00 | 95 | 1003.6 |
| 20260507101929 | 12 | 320 | 11.3 | 16.1 | 0.00 | 0.58 | 0.00 | 95 | 1004.0 |
| 20260507101729 | 12 | 324 | 6.4 | 11.3 | 0.00 | 0.58 | 0.00 | 95 | 1003.8 |
| 20260507101329 | 12 | 66 | 6.4 | 22.5 | 0.00 | 0.58 | 0.00 | 95 | 1004.0 |
| 20260507101129 | 12 | 328 | 3.2 | 12.9 | 0.00 | 0.58 | 0.00 | 95 | 1004.2 |
| 20260507100929 | 12 | 268 | 8.0 | 12.9 | 0.00 | 0.58 | 0.00 | 95 | 1004.3 |
| 20260507100729 | 12 | 310 | 6.4 | 12.9 | 0.00 | 0.58 | 0.00 | 94 | 1004.3 |
| 20260507100529 | 12 | 1 | 3.2 | 17.7 | 0.00 | 0.58 | 0.00 | 95 | 1004.5 |
| 20260507100329 | 12 | 287 | 9.7 | 16.1 | 0.00 | 0.58 | 0.00 | 94 | 1004.4 |
| 20260507100129 | 11 | 315 | 14.5 | 20.9 | 0.00 | 0.58 | 0.00 | 95 | 1004.6 |
| 20260507095929 | 11 | 346 | 6.4 | 24.1 | 0.00 | 0.58 | 0.00 | 95 | 1004.6 |
| 20260507095529 | 11 | 290 | 8.0 | 22.5 | 0.00 | 0.58 | 0.00 | 95 | 1004.5 |
| 20260507095329 | 11 | 305 | 6.4 | 22.5 | 0.00 | 0.58 | 0.00 | 95 | 1004.4 |
| 20260507095129 | 11 | 323 | 8.0 | 9.7 | 0.00 | 0.58 | 0.00 | 95 | 1004.4 |
| 20260507094529 | 11 | 301 | 6.4 | 14.5 | 0.13 | 0.58 | 0.00 | 95 | 1004.6 |
| 20260507094329 | 11 | 311 | 4.8 | 9.7 | 0.30 | 0.58 | 0.00 | 95 | 1004.5 |
| 20260507094129 | 11 | 30 | 4.8 | 6.4 | 0.30 | 0.58 | 0.00 | 95 | 1004.6 |
| 20260507093929 | 11 | 318 | 6.4 | 12.9 | 0.30 | 0.56 | 0.00 | 95 | 1004.5 |
| 20260507093729 | 11 | 286 | 4.8 | 11.3 | 0.48 | 0.56 | 0.00 | 94 | 1004.6 |
| 20260507093529 | 11 | 291 | 6.4 | 11.3 | 0.30 | 0.53 | 0.00 | 94 | 1004.5 |
| 20260507093329 | 11 | 294 | 6.4 | 12.9 | 0.61 | 0.53 | 0.00 | 94 | 1004.7 |
| 20260507093129 | 11 | 11 | 4.8 | 11.3 | 0.89 | 0.53 | 0.00 | 94 | 1004.8 |
| 20260507092929 | 11 | 308 | 11.3 | 12.9 | 0.79 | 0.51 | 0.00 | 94 | 1004.8 |
| 20260507092729 | 11 | 315 | 3.2 | 12.9 | 0.79 | 0.48 | 0.00 | 94 | 1005.1 |
| 20260507092529 | 11 | 301 | 9.7 | 14.5 | 0.79 | 0.46 | 0.00 | 93 | 1004.9 |
| 20260507092329 | 11 | 294 | 6.4 | 6.4 | 0.61 | 0.43 | 0.00 | 93 | 1004.8 |
| 20260507092129 | 11 | 262 | 4.8 | 6.4 | 0.30 | 0.38 | 0.00 | 93 | 1004.7 |
| 20260507091929 | 11 | 292 | 8.0 | 14.5 | 0.30 | 0.38 | 0.00 | 93 | 1004.9 |
| 20260507091729 | 11 | 305 | 1.6 | 12.9 | 0.30 | 0.36 | 0.00 | 93 | 1004.7 |
| 20260507091529 | 11 | 312 | 3.2 | 6.4 | 0.18 | 0.33 | 0.00 | 93 | 1004.9 |
| 20260507091329 | 11 | 306 | 3.2 | 11.3 | 0.18 | 0.33 | 0.00 | 93 | 1004.8 |
| 20260507091129 | 11 | 294 | 3.2 | 6.4 | 0.30 | 0.33 | 0.00 | 92 | 1004.8 |
| 20260507090929 | 11 | 303 | 6.4 | 9.7 | 0.48 | 0.33 | 0.00 | 92 | 1004.6 |
| 20260507090729 | 11 | 329 | 0.0 | 3.2 | 0.43 | 0.30 | 0.00 | 92 | 1004.6 |
| 20260507090528 | 11 | 5 | 1.6 | 9.7 | 0.43 | 0.30 | 0.00 | 92 | 1004.9 |
| 20260507090129 | 11 | 301 | 1.6 | 6.4 | 0.48 | 0.28 | 0.00 | 92 | 1005.1 |
| 20260507085929 | 11 | 325 | 11.3 | 16.1 | 0.30 | 0.25 | 0.00 | 92 | 1005.2 |
| 20260507085729 | 11 | 303 | 8.0 | 12.9 | 0.18 | 0.23 | 0.00 | 91 | 1005.0 |
| 20260507085529 | 11 | 311 | 8.0 | 11.3 | 0.13 | 0.20 | 0.00 | 91 | 1004.9 |
| 20260507085329 | 11 | 359 | 6.4 | 11.3 | 0.13 | 0.20 | 0.00 | 91 | 1005.2 |
| 20260507085129 | 11 | 277 | 4.8 | 9.7 | 0.13 | 0.20 | 0.00 | 91 | 1005.0 |
| 20260507084929 | 11 | 324 | 8.0 | 11.3 | 0.13 | 0.20 | 0.00 | 91 | 1005.0 |
| 20260507084529 | 11 | 309 | 4.8 | 12.9 | 0.18 | 0.18 | 0.00 | 90 | 1005.1 |
| 20260507084330 | 11 | 166 | 1.6 | 6.4 | 0.18 | 0.18 | 0.00 | 90 | 1005.1 |
| 20260507084129 | 11 | 302 | 9.7 | 14.5 | 0.18 | 0.18 | 0.00 | 89 | 1005.0 |
| 20260507083929 | 11 | 332 | 4.8 | 6.4 | 0.18 | 0.18 | 0.00 | 88 | 1004.9 |
| 20260507083729 | 11 | 317 | 9.7 | 14.5 | 0.18 | 0.18 | 0.00 | 88 | 1005.1 |
| 20260507083529 | 11 | 310 | 1.6 | 9.7 | 0.00 | 0.15 | 0.00 | 87 | 1005.2 |
| 20260507083329 | 11 | 4 | 8.0 | 14.5 | 0.00 | 0.15 | 0.00 | 87 | 1005.3 |
| 20260507082929 | 11 | 2 | 4.8 | 9.7 | 0.13 | 0.15 | 0.00 | 87 | 1005.2 |
| 20260507082729 | 11 | 295 | 8.0 | 16.1 | 0.13 | 0.15 | 0.00 | 87 | 1005.2 |
| 20260507082529 | 11 | 308 | 1.6 | 16.1 | 0.13 | 0.15 | 0.00 | 86 | 1005.1 |
| 20260507082329 | 12 | 347 | 1.6 | 16.1 | 0.13 | 0.15 | 0.00 | 87 | 1005.2 |
| 20260507082129 | 12 | 331 | 4.8 | 6.4 | 0.13 | 0.15 | 0.00 | 87 | 1005.1 |
| 20260507081729 | 12 | 331 | 6.4 | 9.7 | 0.18 | 0.13 | 0.00 | 87 | 1005.3 |
| 20260507081529 | 12 | 347 | 6.4 | 17.7 | 0.18 | 0.13 | 0.00 | 86 | 1005.3 |
| 20260507081329 | 12 | 303 | 3.2 | 14.5 | 0.18 | 0.13 | 0.00 | 86 | 1005.5 |
| 20260507081129 | 12 | 346 | 8.0 | 11.3 | 0.18 | 0.13 | 0.00 | 87 | 1005.2 |
| 20260507080929 | 12 | 333 | 8.0 | 14.5 | 0.00 | 0.10 | 0.00 | 87 | 1005.2 |
| 20260507080729 | 12 | 353 | 1.6 | 11.3 | 0.00 | 0.10 | 0.00 | 87 | 1005.1 |
| 20260507080529 | 12 | 327 | 4.8 | 14.5 | 0.00 | 0.10 | 0.00 | 87 | 1005.2 |
| 20260507080329 | 12 | 335 | 3.2 | 11.3 | 0.18 | 0.10 | 0.00 | 87 | 1005.1 |
| 20260507080130 | 12 | 305 | 4.8 | 9.7 | 0.18 | 0.10 | 0.00 | 86 | 1005.5 |
| 20260507075929 | 12 | 13 | 4.8 | 12.9 | 0.18 | 0.10 | 0.00 | 86 | 1005.2 |
| 20260507075729 | 12 | 313 | 4.8 | 11.3 | 0.18 | 0.10 | 0.00 | 86 | 1005.3 |
| 20260507075529 | 12 | 339 | 11.3 | 14.5 | 0.18 | 0.10 | 0.00 | 86 | 1005.4 |
| 20260507075329 | 12 | 303 | 4.8 | 12.9 | 0.13 | 0.08 | 0.00 | 86 | 1005.3 |
| 20260507075129 | 12 | 16 | 1.6 | 17.7 | 0.30 | 0.08 | 0.00 | 85 | 1005.4 |
| 20260507074929 | 12 | 316 | 8.0 | 12.9 | 0.30 | 0.08 | 0.00 | 85 | 1005.2 |
| 20260507074729 | 12 | 306 | 3.2 | 12.9 | 0.30 | 0.08 | 0.00 | 86 | 1005.3 |
| 20260507074529 | 12 | 336 | 6.4 | 12.9 | 0.30 | 0.05 | 0.00 | 86 | 1005.5 |
| 20260507074329 | 12 | 15 | 3.2 | 14.5 | 0.30 | 0.05 | 0.00 | 85 | 1005.5 |
| 20260507074129 | 12 | 347 | 6.4 | 16.1 | 0.13 | 0.03 | 0.00 | 84 | 1005.5 |
| 20260507073729 | 12 | 284 | 4.8 | 6.4 | 0.13 | 0.03 | 0.00 | 85 | 1005.6 |
| 20260507073529 | 12 | 304 | 1.6 | 6.4 | 0.00 | 0.00 | 0.00 | 84 | 1005.5 |
| 20260507073329 | 12 | 312 | 0.0 | 4.8 | 0.00 | 0.00 | 0.00 | 84 | 1005.6 |
| 20260507073129 | 12 | 285 | 1.6 | 4.8 | 0.00 | 0.00 | 0.00 | 83 | 1005.7 |
| 20260507072929 | 12 | 286 | 1.6 | 6.4 | 0.00 | 0.00 | 0.00 | 83 | 1005.8 |
| 20260507072729 | 12 | 315 | 1.6 | 4.8 | 0.00 | 0.00 | 0.00 | 83 | 1005.8 |
| 20260507072529 | 12 | 281 | 1.6 | 3.2 | 0.00 | 0.00 | 0.00 | 82 | 1005.8 |
| 20260507072129 | 12 | 336 | 1.6 | 6.4 | 0.00 | 0.00 | 0.00 | 81 | 1005.9 |
| 20260507071929 | 12 | 20 | 4.8 | 9.7 | 0.00 | 0.00 | 0.00 | 80 | 1005.9 |
| 20260507071729 | 13 | 341 | 3.2 | 6.4 | 0.00 | 0.00 | 0.00 | 79 | 1005.7 |
| 20260507071329 | 13 | 358 | 3.2 | 6.4 | 0.00 | 0.00 | 0.00 | 78 | 1006.0 |
| 20260507071129 | 13 | 296 | 4.8 | 6.4 | 0.00 | 0.00 | 0.00 | 77 | 1006.0 |
| 20260507070929 | 13 | 297 | 1.6 | 9.7 | 0.00 | 0.00 | 0.00 | 78 | 1006.2 |
| 20260507070329 | 13 | 287 | 3.2 | 9.7 | 0.00 | 0.00 | 0.00 | 76 | 1006.4 |
| 20260507070129 | 13 | 298 | 3.2 | 14.5 | 0.00 | 0.00 | 0.00 | 75 | 1006.4 |
| 20260507065929 | 13 | 292 | 8.0 | 11.3 | 0.00 | 0.00 | 0.00 | 75 | 1006.4 |
| 20260507065729 | 13 | 313 | 8.0 | 14.5 | 0.00 | 0.00 | 0.00 | 75 | 1006.5 |
| 20260507065329 | 13 | 314 | 4.8 | 12.9 | 0.00 | 0.00 | 0.00 | 75 | 1006.4 |
| 20260507065129 | 13 | 286 | 3.2 | 11.3 | 0.00 | 0.00 | 0.00 | 75 | 1006.4 |
| 20260507064929 | 13 | 313 | 1.6 | 9.7 | 0.00 | 0.00 | 0.00 | 76 | 1006.4 |
| 20260507064729 | 12 | 295 | 4.8 | 9.7 | 0.00 | 0.00 | 0.00 | 76 | 1006.0 |
| 20260507064529 | 12 | 212 | 6.4 | 6.4 | 0.00 | 0.00 | 0.00 | 77 | 1006.3 |
| 20260507064329 | 12 | 294 | 1.6 | 6.4 | 0.00 | 0.00 | 0.00 | 78 | 1006.2 |
| 20260507064129 | 12 | 274 | 3.2 | 4.8 | 0.00 | 0.00 | 0.00 | 78 | 1006.3 |
| 20260507063929 | 12 | 13 | 3.2 | 4.8 | 0.00 | 0.00 | 0.00 | 78 | 1006.4 |
| 20260507063729 | 12 | 358 | 6.4 | 11.3 | 0.00 | 0.00 | 0.00 | 79 | 1006.5 |
| 20260507063529 | 11 | 287 | 4.8 | 9.7 | 0.00 | 0.00 | 0.00 | 80 | 1006.7 |
| 20260507063329 | 11 | 294 | 4.8 | 11.3 | 0.00 | 0.00 | 0.00 | 80 | 1006.7 |
| 20260507063129 | 11 | 321 | 1.6 | 9.7 | 0.00 | 0.00 | 0.00 | 80 | 1006.7 |
| 20260507062929 | 11 | 293 | 3.2 | 4.8 | 0.00 | 0.00 | 0.00 | 80 | 1007.0 |
| 20260507062730 | 11 | 288 | 1.6 | 4.8 | 0.00 | 0.00 | 0.00 | 80 | 1007.0 |
| 20260507062529 | 11 | 294 | 3.2 | 4.8 | 0.00 | 0.00 | 0.00 | 80 | 1007.0 |
| 20260507062329 | 11 | 311 | 6.4 | 11.3 | 0.00 | 0.00 | 0.00 | 80 | 1007.0 |
| 20260507062129 | 11 | 312 | 3.2 | 6.4 | 0.00 | 0.00 | 0.00 | 80 | 1006.9 |
| 20260507061929 | 11 | 312 | 3.2 | 6.4 | 0.00 | 0.00 | 0.00 | 81 | 1007.2 |
| 20260507061529 | 11 | 14 | 6.4 | 9.7 | 0.00 | 0.00 | 0.00 | 80 | 1007.4 |
| 20260507061128 | 11 | 312 | 3.2 | 9.7 | 0.00 | 0.00 | 0.00 | 81 | 1007.0 |
| 20260507060928 | 11 | 353 | 6.4 | 6.4 | 0.00 | 0.00 | 0.00 | 81 | 1007.3 |
| 20260507060728 | 11 | 319 | 3.2 | 9.7 | 0.00 | 0.00 | 0.00 | 82 | 1007.0 |
| 20260507060528 | 11 | 327 | 0.0 | 4.8 | 0.00 | 0.00 | 0.00 | 82 | 1006.9 |
| 20260507060329 | 11 | 321 | 3.2 | 3.2 | 0.00 | 0.00 | 0.00 | 82 | 1007.0 |
| 20260507060129 | 11 | 248 | 1.6 | 6.4 | 0.00 | 0.00 | 0.00 | 82 | 1006.7 |
| 20260507055929 | 11 | 248 | 0.0 | 1.6 | 0.00 | 0.00 | 0.00 | 82 | 1006.8 |
| 20260507055729 | 11 | 245 | 1.6 | 9.7 | 0.00 | 0.00 | 0.00 | 82 | 1006.7 |
| 20260507055529 | 11 | 224 | 4.8 | 4.8 | 0.00 | 0.00 | 0.00 | 83 | 1007.1 |
| 20260507055329 | 11 | 251 | 3.2 | 4.8 | 0.00 | 0.00 | 0.00 | 82 | 1007.0 |
| 20260507055129 | 11 | 276 | 0.0 | 3.2 | 0.00 | 0.00 | 0.00 | 82 | 1007.3 |
| 20260507054929 | 11 | 252 | 3.2 | 3.2 | 0.00 | 0.00 | 0.00 | 83 | 1007.8 |
| 20260507054729 | 11 | 294 | 0.0 | 1.6 | 0.00 | 0.00 | 0.00 | 83 | 1008.1 |
| 20260507054529 | 11 | 293 | 0.0 | 1.6 | 0.00 | 0.00 | 0.00 | 84 | 1008.0 |
| 20260507054329 | 11 | 293 | 0.0 | 0.0 | 0.00 | 0.00 | 0.00 | 83 | 1008.0 |
| 20260507054129 | 11 | 286 | 1.6 | 1.6 | 0.00 | 0.00 | 0.00 | 83 | 1008.3 |
| 20260507053930 | 11 | 284 | 0.0 | 1.6 | 0.00 | 0.00 | 0.00 | 82 | 1007.7 |
| 20260507053729 | 11 | 310 | 0.0 | 3.2 | 0.00 | 0.00 | 0.00 | 81 | 1008.2 |
| 20260507053529 | 11 | 288 | 0.0 | 3.2 | 0.00 | 0.00 | 0.00 | 81 | 1008.0 |
| 20260507053129 | 11 | 269 | 0.0 | 1.6 | 0.00 | 0.00 | 0.00 | 81 | 1008.3 |
| 20260507052930 | 11 | 221 | 1.6 | 3.2 | 0.00 | 0.00 | 0.00 | 81 | 1008.4 |
| 20260507052729 | 11 | 291 | 0.0 | 1.6 | 0.00 | 0.00 | 0.00 | 81 | 1008.9 |
| 20260507052329 | 11 | 289 | 3.2 | 3.2 | 0.00 | 0.00 | 0.00 | 79 | 1008.8 |
| 20260507052129 | 11 | 302 | 3.2 | 6.4 | 0.00 | 0.00 | 0.00 | 79 | 1009.0 |
| 20260507051929 | 11 | 296 | 1.6 | 1.6 | 0.00 | 0.00 | 0.00 | 79 | 1009.0 |
| 20260507051729 | 11 | 284 | 1.6 | 4.8 | 0.00 | 0.00 | 0.00 | 78 | 1008.9 |
| 20260507051529 | 11 | 313 | 1.6 | 1.6 | 0.00 | 0.00 | 0.00 | 79 | 1008.9 |
| 20260507051329 | 11 | 317 | 0.0 | 1.6 | 0.00 | 0.00 | 0.00 | 78 | 1009.0 |
| 20260507051129 | 11 | 317 | 0.0 | 1.6 | 0.00 | 0.00 | 0.00 | 78 | 1008.8 |
| 20260507050929 | 11 | 333 | 0.0 | 0.0 | 0.00 | 0.00 | 0.00 | 78 | 1009.3 |
| 20260507050729 | 11 | 334 | 0.0 | 1.6 | 0.00 | 0.00 | 0.00 | 78 | 1009.5 |
| 20260507050328 | 11 | 336 | 1.6 | 3.2 | 0.00 | 0.00 | 0.00 | 78 | 1009.7 |
| 20260507050129 | 11 | 337 | 1.6 | 4.8 | 0.00 | 0.00 | 0.00 | 78 | 1009.6 |
| 20260507045928 | 11 | 332 | 6.4 | 9.7 | 0.00 | 0.00 | 0.00 | 78 | 1009.5 |
| 20260507045728 | 11 | 319 | 3.2 | 6.4 | 0.00 | 0.00 | 0.00 | 78 | 1009.7 |
| 20260507045528 | 11 | 337 | 3.2 | 4.8 | 0.00 | 0.00 | 0.00 | 78 | 1009.5 |
| 20260507045128 | 11 | 286 | 1.6 | 3.2 | 0.00 | 0.00 | 0.00 | 78 | 1009.7 |
| 20260507044928 | 11 | 300 | 4.8 | 9.7 | 0.00 | 0.00 | 0.00 | 78 | 1009.8 |
| 20260507044728 | 11 | 302 | 3.2 | 6.4 | 0.00 | 0.00 | 0.00 | 78 | 1009.9 |
| 20260507044328 | 11 | 286 | 3.2 | 4.8 | 0.00 | 0.00 | 0.00 | 78 | 1010.0 |
| 20260507044128 | 11 | 323 | 3.2 | 4.8 | 0.00 | 0.00 | 0.00 | 78 | 1010.1 |
| 20260507043929 | 11 | 318 | 1.6 | 9.7 | 0.00 | 0.00 | 0.00 | 77 | 1009.8 |
| 20260507043728 | 11 | 1 | 4.8 | 11.3 | 0.00 | 0.00 | 0.00 | 77 | 1010.0 |
| 20260507043529 | 11 | 334 | 3.2 | 3.2 | 0.00 | 0.00 | 0.00 | 77 | 1009.7 |
| 20260507043328 | 11 | 1 | 1.6 | 4.8 | 0.00 | 0.00 | 0.00 | 77 | 1009.8 |
| 20260507043128 | 11 | 293 | 1.6 | 6.4 | 0.00 | 0.00 | 0.00 | 77 | 1009.9 |
| 20260507042929 | 11 | 354 | 3.2 | 9.7 | 0.00 | 0.00 | 0.00 | 77 | 1009.9 |
| 20260507042528 | 11 | 347 | 4.8 | 9.7 | 0.00 | 0.00 | 0.00 | 77 | 1010.1 |
| 20260507042328 | 11 | 325 | 6.4 | 12.9 | 0.00 | 0.00 | 0.00 | 77 | 1010.2 |
| 20260507041928 | 12 | 6 | 4.8 | 11.3 | 0.00 | 0.00 | 0.00 | 77 | 1010.2 |
| 20260507041728 | 12 | 359 | 1.6 | 11.3 | 0.00 | 0.00 | 0.00 | 77 | 1010.1 |
| 20260507041528 | 12 | 310 | 4.8 | 6.4 | 0.00 | 0.00 | 0.00 | 77 | 1010.5 |
| 20260507041328 | 12 | 317 | 4.8 | 4.8 | 0.00 | 0.00 | 0.00 | 77 | 1010.0 |
| 20260507041128 | 12 | 344 | 3.2 | 12.9 | 0.00 | 0.00 | 0.00 | 77 | 1010.3 |
| 20260507040928 | 12 | 329 | 9.7 | 11.3 | 0.00 | 0.00 | 0.00 | 77 | 1010.2 |
| 20260507040528 | 12 | 314 | 4.8 | 12.9 | 0.00 | 0.00 | 0.00 | 76 | 1010.2 |
| 20260507040327 | 12 | 334 | 4.8 | 6.4 | 0.00 | 0.00 | 0.00 | 77 | 1009.9 |
| 20260507040127 | 12 | 340 | 3.2 | 9.7 | 0.00 | 0.00 | 0.00 | 76 | 1010.3 |
| 20260507035927 | 12 | 310 | 4.8 | 9.7 | 0.00 | 0.00 | 0.00 | 76 | 1010.4 |
| 20260507035727 | 12 | 28 | 1.6 | 3.2 | 0.00 | 0.00 | 0.00 | 76 | 1010.3 |
| 20260507035527 | 12 | 327 | 1.6 | 3.2 | 0.00 | 0.00 | 0.00 | 76 | 1010.4 |
| 20260507035327 | 12 | 332 | 1.6 | 6.4 | 0.00 | 0.00 | 0.00 | 76 | 1010.4 |
| 20260507035127 | 12 | 281 | 3.2 | 4.8 | 0.00 | 0.00 | 0.00 | 76 | 1010.5 |
| 20260507034928 | 12 | 353 | 4.8 | 6.4 | 0.00 | 0.00 | 0.00 | 76 | 1010.5 |
| 20260507034727 | 12 | 298 | 3.2 | 4.8 | 0.00 | 0.00 | 0.00 | 76 | 1010.4 |
| 20260507034527 | 12 | 309 | 3.2 | 4.8 | 0.00 | 0.00 | 0.00 | 76 | 1010.7 |
| 20260507034127 | 12 | 318 | 3.2 | 9.7 | 0.00 | 0.00 | 0.00 | 76 | 1010.7 |
| 20260507033927 | 12 | 343 | 3.2 | 3.2 | 0.00 | 0.00 | 0.00 | 76 | 1010.8 |
| 20260507033728 | 12 | 348 | 9.7 | 11.3 | 0.00 | 0.00 | 0.00 | 76 | 1010.9 |
| 20260507033327 | 12 | 327 | 9.7 | 11.3 | 0.00 | 0.00 | 0.00 | 76 | 1011.0 |
| 20260507033127 | 12 | 349 | 1.6 | 6.4 | 0.00 | 0.00 | 0.00 | 76 | 1011.0 |
| 20260507032927 | 12 | 12 | 4.8 | 9.7 | 0.00 | 0.00 | 0.00 | 76 | 1010.9 |
| 20260507032728 | 12 | 314 | 1.6 | 6.4 | 0.00 | 0.00 | 0.00 | 76 | 1011.0 |
| 20260507032327 | 12 | 284 | 9.7 | 11.3 | 0.00 | 0.00 | 0.00 | 76 | 1010.9 |
| 20260507032127 | 12 | 343 | 9.7 | 16.1 | 0.00 | 0.00 | 0.00 | 76 | 1011.1 |
| 20260507031927 | 12 | 330 | 3.2 | 14.5 | 0.00 | 0.00 | 0.00 | 76 | 1011.0 |
| 20260507031727 | 12 | 10 | 3.2 | 9.7 | 0.00 | 0.00 | 0.00 | 76 | 1011.0 |
| 20260507031527 | 12 | 323 | 1.6 | 6.4 | 0.00 | 0.00 | 0.00 | 76 | 1011.0 |
| 20260507031327 | 12 | 295 | 6.4 | 9.7 | 0.00 | 0.00 | 0.00 | 76 | 1010.9 |
| 20260507031127 | 12 | 338 | 1.6 | 4.8 | 0.00 | 0.00 | 0.00 | 76 | 1010.8 |
| 20260507030927 | 12 | 296 | 3.2 | 9.7 | 0.00 | 0.00 | 0.00 | 76 | 1011.0 |
| 20260507030727 | 12 | 7 | 3.2 | 4.8 | 0.00 | 0.00 | 0.00 | 76 | 1011.1 |
| 20260507030327 | 12 | 342 | 6.4 | 6.4 | 0.00 | 0.00 | 0.00 | 76 | 1010.8 |
| 20260507030127 | 12 | 297 | 1.6 | 9.7 | 0.00 | 0.00 | 0.00 | 76 | 1011.1 |
| 20260507025927 | 12 | 354 | 3.2 | 6.4 | 0.00 | 0.00 | 0.00 | 76 | 1011.5 |
| 20260507025727 | 13 | 283 | 1.6 | 4.8 | 0.00 | 0.00 | 0.00 | 75 | 1011.0 |
| 20260507025528 | 13 | 290 | 3.2 | 3.2 | 0.00 | 0.00 | 0.00 | 75 | 1011.3 |
| 20260507025127 | 13 | 305 | 6.4 | 9.7 | 0.00 | 0.00 | 0.00 | 75 | 1011.1 |
| 20260507024928 | 13 | 350 | 3.2 | 6.4 | 0.00 | 0.00 | 0.00 | 75 | 1011.2 |
| 20260507024727 | 13 | 304 | 3.2 | 11.3 | 0.00 | 0.00 | 0.00 | 75 | 1011.6 |
| 20260507024527 | 13 | 301 | 4.8 | 4.8 | 0.00 | 0.00 | 0.00 | 75 | 1011.4 |
| 20260507024327 | 13 | 321 | 4.8 | 4.8 | 0.00 | 0.00 | 0.00 | 75 | 1011.6 |
| 20260507023928 | 13 | 20 | 4.8 | 6.4 | 0.00 | 0.00 | 0.00 | 75 | 1011.8 |
| 20260507023728 | 13 | 14 | 8.0 | 12.9 | 0.00 | 0.00 | 0.00 | 76 | 1011.6 |
| 20260507023528 | 13 | 26 | 6.4 | 6.4 | 0.00 | 0.00 | 0.00 | 76 | 1011.6 |
| 20260507023328 | 13 | 351 | 3.2 | 6.4 | 0.00 | 0.00 | 0.00 | 76 | 1011.7 |
| 20260507023128 | 13 | 315 | 1.6 | 3.2 | 0.00 | 0.00 | 0.00 | 76 | 1011.7 |
| 20260507022928 | 13 | 19 | 1.6 | 3.2 | 0.00 | 0.00 | 0.00 | 75 | 1011.7 |
| 20260507022728 | 13 | 354 | 3.2 | 4.8 | 0.00 | 0.00 | 0.00 | 75 | 1012.0 |
| 20260507022528 | 13 | 320 | 3.2 | 6.4 | 0.00 | 0.00 | 0.00 | 75 | 1011.9 |
| 20260507022328 | 13 | 332 | 1.6 | 4.8 | 0.00 | 0.00 | 0.00 | 75 | 1012.0 |
| 20260507022128 | 13 | 348 | 1.6 | 9.7 | 0.00 | 0.00 | 0.00 | 75 | 1011.9 |
| 20260507021728 | 13 | 339 | 8.0 | 11.3 | 0.00 | 0.00 | 0.00 | 75 | 1012.1 |
| 20260507021528 | 12 | 357 | 1.6 | 9.7 | 0.00 | 0.00 | 0.00 | 75 | 1012.2 |
| 20260507021328 | 12 | 346 | 4.8 | 11.3 | 0.00 | 0.00 | 0.00 | 75 | 1012.4 |
| 20260507020928 | 12 | 320 | 3.2 | 6.4 | 0.00 | 0.00 | 0.00 | 75 | 1012.3 |
| 20260507020728 | 12 | 344 | 3.2 | 6.4 | 0.00 | 0.00 | 0.00 | 75 | 1012.4 |
| 20260507020528 | 12 | 309 | 1.6 | 3.2 | 0.00 | 0.00 | 0.00 | 75 | 1012.4 |
| 20260507020327 | 12 | 325 | 4.8 | 11.3 | 0.00 | 0.00 | 0.00 | 75 | 1012.5 |
| 20260507020127 | 12 | 1 | 4.8 | 4.8 | 0.00 | 0.00 | 0.00 | 75 | 1012.4 |
| 20260507015927 | 12 | 50 | 3.2 | 11.3 | 0.00 | 0.00 | 0.00 | 75 | 1012.5 |
| 20260507015727 | 13 | 356 | 3.2 | 6.4 | 0.00 | 0.00 | 0.00 | 75 | 1012.4 |
| 20260507015527 | 13 | 306 | 6.4 | 6.4 | 0.00 | 0.00 | 0.00 | 75 | 1012.4 |
| 20260507015327 | 13 | 8 | 4.8 | 11.3 | 0.00 | 0.00 | 0.00 | 74 | 1012.4 |
| 20260507015127 | 13 | 301 | 4.8 | 6.4 | 0.00 | 0.00 | 0.00 | 74 | 1012.4 |
| 20260507014927 | 13 | 329 | 9.7 | 12.9 | 0.00 | 0.00 | 0.00 | 74 | 1012.5 |
| 20260507014728 | 13 | 359 | 3.2 | 11.3 | 0.00 | 0.00 | 0.00 | 74 | 1012.5 |
| 20260507014527 | 13 | 341 | 3.2 | 11.3 | 0.00 | 0.00 | 0.00 | 75 | 1012.4 |
| 20260507014327 | 13 | 5 | 4.8 | 6.4 | 0.00 | 0.00 | 0.00 | 75 | 1012.3 |
| 20260507014127 | 13 | 314 | 6.4 | 11.3 | 0.00 | 0.00 | 0.00 | 75 | 1012.5 |
| 20260507013928 | 13 | 312 | 3.2 | 4.8 | 0.00 | 0.00 | 0.00 | 75 | 1012.4 |
| 20260507013528 | 13 | 324 | 6.4 | 12.9 | 0.00 | 0.00 | 0.00 | 74 | 1012.5 |
| 20260507013328 | 13 | 1 | 3.2 | 6.4 | 0.00 | 0.00 | 0.00 | 74 | 1012.4 |
| 20260507013128 | 13 | 13 | 6.4 | 12.9 | 0.00 | 0.00 | 0.00 | 74 | 1012.6 |
| 20260507012728 | 13 | 321 | 8.0 | 16.1 | 0.00 | 0.00 | 0.00 | 74 | 1012.5 |
| 20260507012528 | 13 | 292 | 6.4 | 17.7 | 0.00 | 0.00 | 0.00 | 74 | 1012.7 |
| 20260507012328 | 13 | 315 | 3.2 | 9.7 | 0.00 | 0.00 | 0.00 | 74 | 1012.6 |
| 20260507012128 | 13 | 304 | 3.2 | 12.9 | 0.00 | 0.00 | 0.00 | 74 | 1012.6 |
| 20260507011928 | 13 | 317 | 6.4 | 12.9 | 0.00 | 0.00 | 0.00 | 74 | 1012.6 |
| 20260507011727 | 13 | 317 | 6.4 | 12.9 | 0.00 | 0.00 | 0.00 | 74 | 1012.9 |
| 20260507011528 | 13 | 310 | 6.4 | 12.9 | 0.00 | 0.00 | 0.00 | 74 | 1012.7 |
| 20260507011328 | 13 | 326 | 4.8 | 6.4 | 0.00 | 0.00 | 0.00 | 73 | 1012.7 |
| 20260507011127 | 13 | 336 | 3.2 | 6.4 | 0.00 | 0.00 | 0.00 | 74 | 1012.6 |
| 20260507010927 | 13 | 345 | 4.8 | 6.4 | 0.00 | 0.00 | 0.00 | 73 | 1012.9 |
| 20260507010727 | 13 | 343 | 6.4 | 11.3 | 0.00 | 0.00 | 0.00 | 73 | 1013.0 |
| 20260507010527 | 13 | 353 | 1.6 | 12.9 | 0.00 | 0.00 | 0.00 | 73 | 1012.7 |
| 20260507010328 | 13 | 346 | 4.8 | 14.5 | 0.00 | 0.00 | 0.00 | 73 | 1012.8 |
| 20260507005928 | 13 | 321 | 4.8 | 20.9 | 0.00 | 0.00 | 0.00 | 73 | 1012.8 |
| 20260507005728 | 13 | 27 | 9.7 | 22.5 | 0.00 | 0.00 | 0.00 | 73 | 1012.8 |
| 20260507005528 | 13 | 13 | 1.6 | 9.7 | 0.00 | 0.00 | 0.00 | 74 | 1012.9 |
| 20260507005328 | 13 | 20 | 3.2 | 11.3 | 0.00 | 0.00 | 0.00 | 74 | 1012.8 |
| 20260507005128 | 13 | 291 | 3.2 | 12.9 | 0.00 | 0.00 | 0.00 | 73 | 1012.8 |
| 20260507004928 | 13 | 293 | 11.3 | 14.5 | 0.00 | 0.00 | 0.00 | 73 | 1012.9 |
| 20260507004728 | 13 | 290 | 12.9 | 14.5 | 0.00 | 0.00 | 0.00 | 73 | 1012.6 |
| 20260507004528 | 13 | 325 | 6.4 | 12.9 | 0.00 | 0.00 | 0.00 | 73 | 1012.8 |
| 20260507004328 | 13 | 40 | 3.2 | 12.9 | 0.00 | 0.00 | 0.00 | 73 | 1012.7 |
| 20260507004128 | 13 | 339 | 8.0 | 11.3 | 0.00 | 0.00 | 0.00 | 73 | 1012.9 |
| 20260507003727 | 13 | 356 | 3.2 | 17.7 | 0.00 | 0.00 | 0.00 | 73 | 1012.9 |
| 20260507003528 | 13 | 295 | 4.8 | 11.3 | 0.00 | 0.00 | 0.00 | 73 | 1012.7 |
| 20260507003128 | 13 | 351 | 3.2 | 14.5 | 0.00 | 0.00 | 0.00 | 73 | 1012.8 |
| 20260507002927 | 13 | 318 | 4.8 | 12.9 | 0.00 | 0.00 | 0.00 | 73 | 1012.9 |
| 20260507002728 | 13 | 10 | 3.2 | 6.4 | 0.00 | 0.00 | 0.00 | 73 | 1012.7 |
| 20260507002527 | 13 | 334 | 6.4 | 11.3 | 0.00 | 0.00 | 0.00 | 73 | 1012.8 |
| 20260507002327 | 13 | 303 | 4.8 | 9.7 | 0.00 | 0.00 | 0.00 | 72 | 1012.7 |
| 20260507002127 | 13 | 12 | 4.8 | 12.9 | 0.00 | 0.00 | 0.00 | 72 | 1012.7 |
| 20260507001927 | 13 | 353 | 9.7 | 20.9 | 0.00 | 0.00 | 0.00 | 72 | 1012.7 |
| 20260507001727 | 13 | 9 | 1.6 | 20.9 | 0.00 | 0.00 | 0.00 | 72 | 1012.7 |
| 20260507001527 | 13 | 29 | 6.4 | 16.1 | 0.00 | 0.00 | 0.00 | 72 | 1012.7 |
| 20260507001327 | 13 | 344 | 4.8 | 11.3 | 0.00 | 0.00 | 0.00 | 72 | 1012.7 |
| 20260507001127 | 13 | 323 | 6.4 | 12.9 | 0.00 | 0.00 | 0.00 | 72 | 1012.7 |
| 20260507000927 | 13 | 310 | 9.7 | 14.5 | 0.00 | 0.00 | 0.00 | 72 | 1012.7 |
| 20260507000727 | 13 | 47 | 3.2 | 14.5 | 0.00 | 0.00 | 0.00 | 72 | 1012.8 |
| 20260507000527 | 13 | 349 | 12.9 | 24.1 | 0.00 | 0.00 | 0.00 | 72 | 1012.5 |
| 20260507000328 | 13 | 333 | 4.8 | 14.5 | 0.00 | 0.00 | 0.00 | 72 | 1012.7 |
| 20260507000128 | 13 | 297 | 4.8 | 14.5 | 0.00 | 0.00 | 0.00 | 72 | 1012.8 |
| 20260506235928 | 13 | 310 | 3.2 | 6.4 | 0.00 | 0.00 | 0.00 | 72 | 1012.6 |
| 20260506235728 | 13 | 319 | 4.8 | 12.9 | 0.00 | 0.00 | 0.00 | 72 | 1012.5 |
| 20260506235528 | 13 | 333 | 3.2 | 14.5 | 0.00 | 0.00 | 0.00 | 72 | 1012.7 |
| 20260506235327 | 13 | 328 | 6.4 | 11.3 | 0.00 | 0.00 | 0.00 | 72 | 1012.6 |
| 20260506235128 | 13 | 358 | 1.6 | 11.3 | 0.00 | 0.00 | 0.00 | 72 | 1012.5 |
| 20260506234727 | 13 | 288 | 3.2 | 11.3 | 0.00 | 0.00 | 0.00 | 72 | 1012.7 |
| 20260506234527 | 13 | 320 | 4.8 | 9.7 | 0.00 | 0.00 | 0.00 | 72 | 1012.6 |
| 20260506234327 | 13 | 327 | 6.4 | 16.1 | 0.00 | 0.00 | 0.00 | 72 | 1012.7 |
| 20260506234128 | 13 | 321 | 9.7 | 12.9 | 0.00 | 0.00 | 0.00 | 71 | 1012.4 |
| 20260506233928 | 13 | 310 | 4.8 | 9.7 | 0.00 | 0.00 | 0.00 | 72 | 1012.5 |
| 20260506233728 | 13 | 324 | 3.2 | 11.3 | 0.00 | 0.00 | 0.00 | 72 | 1012.3 |
| 20260506233528 | 13 | 25 | 6.4 | 12.9 | 0.00 | 0.00 | 0.00 | 71 | 1012.7 |
| 20260506233328 | 13 | 335 | 4.8 | 12.9 | 0.00 | 0.00 | 0.00 | 71 | 1012.4 |
| 20260506232928 | 13 | 299 | 9.7 | 16.1 | 0.00 | 0.00 | 0.00 | 71 | 1012.5 |
| 20260506232728 | 14 | 13 | 3.2 | 11.3 | 0.00 | 0.00 | 0.00 | 72 | 1012.5 |
| 20260506232528 | 14 | 322 | 3.2 | 12.9 | 0.00 | 0.00 | 0.00 | 71 | 1012.5 |
| 20260506231728 | 14 | 339 | 1.6 | 4.8 | 0.00 | 0.00 | 0.00 | 71 | 1012.7 |
| 20260506231528 | 14 | 359 | 6.4 | 14.5 | 0.00 | 0.00 | 0.00 | 71 | 1012.9 |
| 20260506231328 | 14 | 305 | 3.2 | 6.4 | 0.00 | 0.00 | 0.00 | 71 | 1012.7 |
| 20260506231128 | 14 | 18 | 3.2 | 9.7 | 0.00 | 0.00 | 0.00 | 71 | 1012.6 |
| 20260506230928 | 14 | 334 | 6.4 | 9.7 | 0.00 | 0.00 | 0.00 | 71 | 1013.0 |
| 20260506230728 | 14 | 309 | 6.4 | 9.7 | 0.00 | 0.00 | 0.00 | 71 | 1012.9 |
| 20260506230528 | 14 | 319 | 3.2 | 16.1 | 0.00 | 0.00 | 0.00 | 71 | 1012.9 |
| 20260506230328 | 14 | 326 | 1.6 | 11.3 | 0.00 | 0.00 | 0.00 | 71 | 1012.7 |
| 20260506230128 | 14 | 342 | 8.0 | 9.7 | 0.00 | 0.00 | 0.00 | 70 | 1012.9 |
| 20260506225928 | 14 | 326 | 4.8 | 11.3 | 0.00 | 0.00 | 0.00 | 71 | 1012.9 |
| 20260506225728 | 15 | 31 | 4.8 | 16.1 | 0.00 | 0.00 | 0.00 | 70 | 1012.8 |
| 20260506225528 | 15 | 312 | 4.8 | 14.5 | 0.00 | 0.00 | 0.00 | 70 | 1012.7 |
| 20260506225128 | 15 | 335 | 14.5 | 20.9 | 0.00 | 0.00 | 0.00 | 70 | 1012.7 |
| 20260506224928 | 15 | 5 | 8.0 | 11.3 | 0.00 | 0.00 | 0.00 | 70 | 1012.7 |
| 20260506224728 | 15 | 319 | 6.4 | 16.1 | 0.00 | 0.00 | 0.00 | 70 | 1012.7 |
| 20260506224528 | 15 | 335 | 4.8 | 14.5 | 0.00 | 0.00 | 0.00 | 70 | 1012.6 |
| 20260506224328 | 15 | 296 | 9.7 | 17.7 | 0.00 | 0.00 | 0.00 | 70 | 1012.7 |
| 20260506224128 | 15 | 308 | 9.7 | 17.7 | 0.00 | 0.00 | 0.00 | 70 | 1012.8 |
| 20260506223928 | 15 | 6 | 9.7 | 16.1 | 0.00 | 0.00 | 0.00 | 70 | 1012.9 |
| 20260506223728 | 15 | 322 | 6.4 | 17.7 | 0.00 | 0.00 | 0.00 | 70 | 1012.8 |
| 20260506223528 | 15 | 36 | 8.0 | 16.1 | 0.00 | 0.00 | 0.00 | 70 | 1012.8 |
| 20260506223328 | 15 | 325 | 6.4 | 20.9 | 0.00 | 0.00 | 0.00 | 70 | 1012.8 |
| 20260506223128 | 15 | 302 | 6.4 | 17.7 | 0.00 | 0.00 | 0.00 | 70 | 1012.9 |
| 20260506222928 | 15 | 318 | 9.7 | 12.9 | 0.00 | 0.00 | 0.00 | 70 | 1013.0 |
| 20260506222728 | 15 | 335 | 8.0 | 12.9 | 0.00 | 0.00 | 0.00 | 69 | 1013.0 |
| 20260506222128 | 15 | 315 | 16.1 | 24.1 | 0.00 | 0.00 | 0.00 | 69 | 1012.9 |
| 20260506221928 | 15 | 11 | 12.9 | 20.9 | 0.00 | 0.00 | 0.00 | 69 | 1013.0 |
| 20260506221728 | 15 | 302 | 6.4 | 11.3 | 0.00 | 0.00 | 0.00 | 70 | 1012.9 |
| 20260506221528 | 15 | 33 | 6.4 | 11.3 | 0.00 | 0.00 | 0.00 | 70 | 1013.0 |
| 20260506221328 | 16 | 339 | 8.0 | 14.5 | 0.00 | 0.00 | 0.00 | 69 | 1012.8 |
| 20260506220929 | 16 | 27 | 4.8 | 12.9 | 0.00 | 0.00 | 0.00 | 69 | 1012.8 |
| 20260506220727 | 16 | 336 | 3.2 | 12.9 | 0.00 | 0.00 | 0.00 | 70 | 1012.8 |
| 20260506220528 | 16 | 354 | 3.2 | 16.1 | 0.00 | 0.00 | 0.00 | 69 | 1012.9 |
| 20260506220128 | 16 | 311 | 6.4 | 16.1 | 0.00 | 0.00 | 0.00 | 70 | 1012.7 |
| 20260506215928 | 16 | 307 | 9.7 | 22.5 | 0.00 | 0.00 | 0.00 | 69 | 1012.8 |
| 20260506215728 | 16 | 338 | 14.5 | 20.9 | 0.00 | 0.00 | 0.00 | 69 | 1012.6 |
| 20260506215328 | 16 | 319 | 4.8 | 22.5 | 0.00 | 0.00 | 0.00 | 69 | 1012.6 |
| 20260506215128 | 16 | 359 | 8.0 | 20.9 | 0.00 | 0.00 | 0.00 | 69 | 1012.6 |
| 20260506214928 | 16 | 286 | 17.7 | 20.9 | 0.00 | 0.00 | 0.00 | 69 | 1012.6 |
| 20260506214728 | 16 | 353 | 4.8 | 17.7 | 0.00 | 0.00 | 0.00 | 69 | 1012.5 |
| 20260506214528 | 16 | 321 | 4.8 | 11.3 | 0.00 | 0.00 | 0.00 | 69 | 1012.7 |
| 20260506214328 | 16 | 332 | 9.7 | 14.5 | 0.00 | 0.00 | 0.00 | 69 | 1012.4 |
| 20260506214128 | 16 | 349 | 4.8 | 25.7 | 0.00 | 0.00 | 0.00 | 69 | 1012.5 |
| 20260506213927 | 16 | 351 | 9.7 | 20.9 | 0.00 | 0.00 | 0.00 | 69 | 1012.4 |
| 20260506213527 | 16 | 4 | 8.0 | 14.5 | 0.00 | 0.00 | 0.00 | 69 | 1012.5 |
| 20260506213128 | 16 | 243 | 9.7 | 12.9 | 0.00 | 0.00 | 0.00 | 69 | 1012.6 |
| 20260506212928 | 16 | 322 | 11.3 | 17.7 | 0.00 | 0.00 | 0.00 | 70 | 1012.4 |
| 20260506212728 | 16 | 323 | 11.3 | 20.9 | 0.00 | 0.00 | 0.00 | 69 | 1012.5 |
| 20260506212528 | 16 | 295 | 8.0 | 24.1 | 0.00 | 0.00 | 0.00 | 70 | 1012.5 |
| 20260506212328 | 16 | 0 | 9.7 | 25.7 | 0.00 | 0.00 | 0.00 | 70 | 1012.6 |
| 20260506212128 | 16 | 326 | 12.9 | 25.7 | 0.00 | 0.00 | 0.00 | 70 | 1012.5 |
| 20260506211927 | 16 | 308 | 16.1 | 22.5 | 0.00 | 0.00 | 0.00 | 70 | 1012.5 |
| 20260506211528 | 16 | 23 | 9.7 | 33.8 | 0.00 | 0.00 | 0.00 | 69 | 1012.6 |
| 20260506211328 | 16 | 27 | 14.5 | 20.9 | 0.00 | 0.00 | 0.00 | 69 | 1012.6 |
| 20260506211127 | 16 | 37 | 11.3 | 17.7 | 0.00 | 0.00 | 0.00 | 69 | 1012.6 |
| 20260506210727 | 17 | 332 | 11.3 | 29.0 | 0.00 | 0.00 | 0.00 | 69 | 1012.3 |
| 20260506210527 | 17 | 342 | 14.5 | 25.7 | 0.00 | 0.00 | 0.00 | 68 | 1012.4 |
| 20260506210328 | 17 | 307 | 6.4 | 14.5 | 0.00 | 0.00 | 0.00 | 69 | 1012.4 |
| 20260506210128 | 17 | 303 | 11.3 | 16.1 | 0.00 | 0.00 | 0.00 | 69 | 1012.4 |
| 20260506205928 | 17 | 316 | 17.7 | 24.1 | 0.00 | 0.00 | 0.00 | 69 | 1012.3 |
| 20260506205728 | 17 | 310 | 6.4 | 20.9 | 0.00 | 0.00 | 0.00 | 69 | 1012.3 |
| 20260506205528 | 17 | 353 | 17.7 | 25.7 | 0.00 | 0.00 | 0.00 | 69 | 1012.1 |
| 20260506205328 | 17 | 338 | 9.7 | 27.4 | 0.00 | 0.00 | 0.00 | 69 | 1012.0 |
| 20260506205128 | 17 | 295 | 8.0 | 27.4 | 0.00 | 0.00 | 0.00 | 69 | 1012.2 |
| 20260506204927 | 17 | 17 | 11.3 | 30.6 | 0.00 | 0.00 | 0.00 | 69 | 1012.2 |
| 20260506204728 | 17 | 352 | 11.3 | 29.0 | 0.00 | 0.00 | 0.00 | 69 | 1012.3 |
| 20260506204528 | 17 | 0 | 6.4 | 25.7 | 0.00 | 0.00 | 0.00 | 69 | 1012.4 |
| 20260506204328 | 17 | 320 | 17.7 | 22.5 | 0.00 | 0.00 | 0.00 | 69 | 1012.4 |
| 20260506204128 | 17 | 307 | 22.5 | 29.0 | 0.00 | 0.00 | 0.00 | 69 | 1012.6 |
| 20260506203928 | 17 | 333 | 22.5 | 27.4 | 0.00 | 0.00 | 0.00 | 69 | 1012.5 |
| 20260506203727 | 17 | 331 | 19.3 | 30.6 | 0.00 | 0.00 | 0.00 | 69 | 1012.5 |
| 20260506203527 | 17 | 307 | 16.1 | 29.0 | 0.00 | 0.00 | 0.00 | 68 | 1012.7 |
| 20260506203328 | 17 | 61 | 9.7 | 22.5 | 0.00 | 0.00 | 0.00 | 68 | 1012.5 |
| 20260506203128 | 17 | 347 | 19.3 | 30.6 | 0.00 | 0.00 | 0.00 | 68 | 1012.6 |
| 20260506202927 | 17 | 9 | 9.7 | 27.4 | 0.00 | 0.00 | 0.00 | 68 | 1012.5 |
| 20260506202527 | 17 | 9 | 20.9 | 25.7 | 0.00 | 0.00 | 0.00 | 67 | 1012.6 |
| 20260506202327 | 17 | 26 | 14.5 | 22.5 | 0.00 | 0.00 | 0.00 | 67 | 1012.5 |
| 20260506202128 | 17 | 334 | 11.3 | 17.7 | 0.00 | 0.00 | 0.00 | 67 | 1012.5 |